Location: Bia?y Szarlej
(50.3500°N, 18.9667°E)
Time: 10:40:18
(UTC+00:00)

Daily predictions for brighter satellites

Satellite Brightness Start Highest point End
(mag) Time Altitude Azimuth Time Altitude Azimuth Time Altitude Azimuth
ATLAS 2AS CENTAUR R/B 3.0 17:47:50 10° NW 17:55:37 76° NE 18:02:43 10° SE
STARLINK-1230 4.1 17:54:33 10° WNW 17:58:40 59° N 18:02:46 10° E
SL-08 RB Rocket 4.1 17:55:49 10° SE 18:00:10 46° ENE 18:04:36 10° N
Cosmos 1908 4.1 17:59:03 10° SSE 18:02:26 30° E 18:05:51 10° NNE
CZ-4C R/B 4.2 17:57:12 10° NW 18:02:27 27° N 18:08:31 10° ENE
CZ-4 R/B 4.1 17:59:44 10° SW 18:02:46 22° W 18:05:48 10° NW
STARLINK-1243 4.1 17:59:32 10° WNW 18:03:39 59° N 18:07:46 10° E
SeaSat 1 2.5 17:59:44 10° NNE 18:04:43 88° WNW 18:09:39 10° SSW
Resurs 1-3 4.5 18:01:05 10° SE 18:04:59 32° ENE 18:08:55 10° N
Cosmos 1943 3.2 17:59:27 10° SSW 18:05:03 65° ESE 18:10:42 10° NE
Ariane Rocket 3.1 18:03:10 10° SSE 18:08:14 83° WSW 18:13:21 10° NNW
STARLINK-1236 4.0 18:04:31 10° WNW 18:08:38 60° N 18:12:44 10° E
MONITOR-E 3.7 18:06:58 10° SSE 18:09:35 72° ENE 18:12:14 10° N
IRIDIUM 104 4.3 18:06:12 10° N 18:11:28 85° E 18:16:41 10° S
Cosmos 1656 Rocket 3.8 18:06:02 10° NNW 18:11:45 85° WSW 18:17:20 10° SSE
IRS-1A Rocket 4.5 18:06:05 10° SSE 18:11:50 83° WSW 18:17:44 10° NNW
Cosmos 1140 Rocket 4.4 18:07:48 10° SSE 18:12:03 26° E 18:16:17 10° NE
STARLINK-1228 2.7 18:09:58 10° WNW 18:12:56 80° NNE 18:15:36 12° ESE
Cosmos 1470 4.4 18:09:32 10° SW 18:13:13 39° WNW 18:16:56 10° N
Cosmos 1953 2.4 18:09:18 10° SSW 18:13:16 80° W 18:17:18 10° N
Cosmos 2184 Rocket 4.0 18:07:47 10° N 18:14:09 83° E 18:20:22 10° S
Meteor 1-11 4.4 18:09:32 10° N 18:15:14 56° ENE 18:20:49 10° SSE
COSMOS 2455 3.2 18:10:27 10° NNW 18:16:22 53° NE 18:22:02 11° ESE
Cosmos 1726 2.1 18:14:18 10° S 18:18:02 85° E 18:21:48 10° N
STARLINK-1269 4.0 18:14:30 10° WNW 18:18:36 61° N 18:22:41 10° E
CZ-2C R/B 3.4 18:14:55 10° NE 18:19:21 28° E 18:23:48 10° SSE
Meteor 2-10 4.2 18:14:43 10° S 18:20:13 83° E 18:25:56 10° NNE
IRIDIUM 114 4.5 18:15:22 10° N 18:20:37 81° W 18:25:50 10° S
MetOp-A 4.3 18:15:53 10° SE 18:21:06 57° ENE 18:26:22 10° N
Cosmos 2058 Rocket 3.8 18:18:06 10° SSE 18:22:12 35° E 18:26:18 10° NNE
STARLINK-1200 4.0 18:19:29 10° WNW 18:23:36 62° N 18:27:28 12° E
Cosmos 614 Rocket 4.1 18:19:21 10° S 18:24:22 51° ESE 18:29:25 10° NNE
ARGOS 3.3 18:21:55 10° SSE 18:27:19 80° WSW 18:32:44 10° NNW
STARLINK-1192 3.9 18:24:29 10° WNW 18:28:36 63° N 18:32:16 13° E
Cosmos 1726 Rocket 3.6 18:25:52 10° S 18:30:13 61° E 18:34:38 10° NNE
SL-16 R/B 4.4 18:25:47 10° WSW 18:30:40 29° NW 18:35:36 10° NNE
FREGAT/IRIS 3.5 18:28:06 10° S 18:30:42 44° W 18:33:22 10° NNW
SL-24 R/B 4.1 18:28:11 10° NNE 18:32:12 47° E 18:35:51 10° S
Meteor 2-17 Rocket 4.4 18:27:05 10° N 18:33:16 76° E 18:39:25 10° SSE
STARLINK-1244 3.9 18:29:28 10° WNW 18:33:36 65° N 18:37:02 14° E
Resurs 01 Rocket 2.1 18:30:55 12° SE 18:34:44 44° ENE 18:38:57 10° N
Cosmos 1825 Rocket 4.1 18:30:55 10° NNW 18:35:17 62° W 18:39:34 10° S
Cosmos 2154 Rocket 4.0 18:30:22 10° N 18:36:46 80° E 18:43:06 10° SSE
Nadezhda 1 Rocket 4.0 18:30:34 10° S 18:36:54 70° E 18:43:13 10° NNE
ERBS 3.3 18:33:48 10° NW 18:36:59 37° NNE 18:39:24 15° E
ATLAS CENTAUR R/B 3.6 18:35:01 10° NNW 18:37:15 14° NNE 18:39:25 10° NE
APEX 4.5 18:31:12 10° NNW 18:37:55 81° WSW 18:43:22 10° SSE
STARLINK-1138 3.8 18:34:27 10° WNW 18:38:35 66° N 18:41:50 16° E
USA 186 3.1 18:36:00 10° S 18:39:10 41° W 18:42:11 10° NNW
Cosmos 921 Rocket 3.0 18:37:30 10° NNW 18:41:41 62° ENE 18:44:56 16° SE
STARLINK-1143 3.8 18:39:26 10° WNW 18:43:34 68° NNE 18:46:36 18° E
SL-24 R/B - RUBIN 2 4.4 18:39:57 10° SSW 18:45:26 55° ESE 18:51:37 10° NE
Cosmos 407 Rocket 3.4 18:40:35 10° S 18:45:39 63° ESE 18:50:45 10° NNE
STARLINK-1233 2.8 18:42:58 10° WNW 18:46:08 86° SSW 18:47:47 25° ESE
STARLINK-1234 2.9 18:43:09 10° WNW 18:46:11 70° SSW 18:47:45 26° SE
Cosmos 1980 Rocket 4.3 18:43:17 10° N 18:46:31 15° NNE 18:49:44 10° ENE
STARLINK-1212 2.8 18:43:26 10° WNW 18:46:35 85° SSW 18:48:13 26° ESE
STARLINK-1105 2.8 18:43:53 10° WNW 18:47:02 85° SSW 18:48:40 26° ESE
STARLINK-1209 2.9 18:44:19 10° WNW 18:47:21 66° SSW 18:48:51 26° SE
STARLINK-1206 2.8 18:44:22 10° WNW 18:47:30 84° SSW 18:49:04 26° ESE
STARLINK-1247 2.8 18:44:48 10° WNW 18:47:56 84° SSW 18:49:30 27° ESE
STARLINK-1227 2.8 18:45:13 10° WNW 18:48:23 84° SSW 18:49:57 27° ESE
STARLINK-1241 3.8 18:44:27 10° WNW 18:48:36 70° NNE 18:51:25 20° E
STARLINK-1218 2.8 18:45:43 10° WNW 18:48:51 83° SSW 18:50:22 27° ESE
Cosmos 2228 3.2 18:44:41 10° SSW 18:48:59 76° W 18:53:22 10° N
STARLINK-1226 2.8 18:46:09 10° WNW 18:49:18 83° SSW 18:50:49 28° ESE
STARLINK-1254 2.8 18:46:35 10° WNW 18:49:44 82° SSW 18:51:15 28° ESE
ERS-1 Rocket 4.4 18:47:20 16° E 18:49:45 22° ENE 18:53:32 10° N
STARLINK-1215 2.8 18:47:04 10° WNW 18:50:12 82° SSW 18:51:40 28° ESE
SPOT 3 Rocket 3.6 18:45:06 10° SSE 18:50:20 82° WSW 18:55:35 10° NNW
STARLINK-1231 2.8 18:47:31 10° WNW 18:50:38 81° SSW 18:52:06 29° ESE
STARLINK-1232 2.8 18:48:25 10° WNW 18:51:33 80° SSW 18:52:59 29° ESE
STARLINK-1217 2.8 18:48:52 10° WNW 18:52:00 80° SSW 18:53:24 30° ESE
Cosmos 1461 3.3 18:47:35 10° NW 18:52:06 70° SW 18:55:35 17° SSE
STARLINK-1208 2.8 18:49:17 10° WNW 18:52:26 80° SSW 18:53:51 30° ESE
STARLINK-1229 2.8 18:49:46 10° WNW 18:52:53 79° SSW 18:54:16 30° ESE
STARLINK-1271 2.8 18:50:13 10° WNW 18:53:21 79° SSW 18:54:43 30° ESE
STARLINK-1239 3.7 18:49:23 10° WNW 18:53:33 72° NNE 18:56:09 22° E
STARLINK-1270 2.8 18:50:40 10° WNW 18:53:48 78° SSW 18:55:08 31° ESE
STARLINK-1154 2.8 18:51:07 10° WNW 18:54:15 78° SSW 18:55:34 31° ESE
Aureole 1 Rocket 4.0 18:46:51 10° SSW 18:54:17 79° ESE 19:00:02 10° NNE
STARLINK-1197 2.8 18:52:02 10° WNW 18:55:09 77° SSW 18:56:26 32° ESE
STARLINK-1189 2.8 18:52:29 10° WNW 18:55:36 76° SSW 18:56:52 32° ESE
STARLINK-1198 2.8 18:52:55 10° WNW 18:56:03 76° SSW 18:57:18 33° SE
Cosmos 1892 4.1 18:53:01 10° NNE 18:56:08 22° ENE 18:57:00 21° E
SPOT 5 4.3 18:55:01 15° E 18:56:23 17° ENE 18:59:12 10° NNE
STARLINK-1188 2.8 18:53:22 10° WNW 18:56:30 75° SSW 18:57:44 33° SE
Cosmos 1953 Rocket 4.3 18:52:34 10° NNW 18:56:58 55° W 19:01:20 10° S
SJ-6B 4.1 18:53:05 10° S 18:57:01 43° W 19:01:00 10° NNW
STARLINK-1235 3.0 18:54:01 10° WNW 18:57:09 63° SSW 18:58:23 32° SE
STARLINK-1187 2.9 18:54:27 10° WNW 18:57:37 68° SSW 18:58:50 33° SE
STARLINK-1199 2.9 18:55:18 10° WNW 18:58:27 74° SSW 18:59:39 34° SE
STARLINK-1240 3.7 18:54:23 10° WNW 18:58:33 74° NNE 19:00:57 24° E
STARLINK-29 3.8 18:56:02 10° SSW 18:58:47 29° SSE 18:58:47 29° SSE
STARLINK-1191 2.9 18:55:46 10° WNW 18:58:55 73° SSW 19:00:06 35° SE
STARLINK-1210 2.9 18:56:13 10° WNW 18:59:22 73° SSW 19:00:31 35° SE
STARLINK-1221 2.9 18:56:40 10° WNW 18:59:50 72° SSW 19:00:58 35° SE
Cosmos 1606 Rocket 4.3 18:55:41 10° SSW 19:00:03 57° WNW 19:04:29 10° N
STARLINK-1219 2.9 18:57:07 10° WNW 19:00:15 72° SSW 19:01:23 36° SE
STARLINK-1222 2.9 18:57:34 10° WNW 19:00:43 71° SSW 19:01:49 36° SE
STARLINK-60 3.0 18:57:34 10° SW 19:00:47 55° SSE 19:02:13 28° E
ATLAS 5 CENTAUR R/B 1.6 18:56:46 10° SSW 19:00:52 55° SE 19:05:29 10° NE
STARLINK-1211 2.9 18:58:02 10° WNW 19:01:10 71° SSW 19:02:15 36° SE
STARLINK-1214 2.9 18:58:28 10° WNW 19:01:37 70° SSW 19:02:41 37° SE
STARLINK-1245 2.9 18:58:58 10° WNW 19:02:05 70° SSW 19:03:07 38° SE
STARLINK-1238 2.9 18:59:23 10° WNW 19:02:31 70° SSW 19:03:34 37° SE
STARLINK-1205 2.9 19:00:19 10° WNW 19:03:26 68° SSW 19:04:25 39° SE
STARLINK-1216 3.6 18:59:23 10° WNW 19:03:33 76° NNE 19:05:45 27° E
STARLINK-1204 2.9 19:00:46 10° WNW 19:03:53 68° SSW 19:04:50 39° SE
Terra 3.5 19:03:35 16° E 19:05:06 18° ENE 19:08:16 10° NNE
Cosmos 1818 4.1 19:00:43 10° SW 19:06:07 64° NW 19:11:34 10° NE
Cosmos 1825 4.3 19:04:20 10° NE 19:06:10 13° ENE 19:06:15 13° ENE
STARLINK-1237 3.6 19:04:21 10° WNW 19:08:30 79° NNE 19:10:31 30° E
Cosmos 1954 Rocket 4.1 19:04:47 10° S 19:09:51 52° ESE 19:14:54 10° NNE
Cosmos 1023 Rocket 4.3 19:06:00 10° SSW 19:11:10 78° ESE 19:16:19 10° NNE
Abrixas rocket 2.6 19:08:22 10° W 19:11:11 39° SSW 19:11:30 37° S
Cosmos 2151 4.5 19:09:37 10° NNE 19:12:48 20° ENE 19:13:16 20° ENE
Cosmos 2058 3.4 19:09:31 10° N 19:13:27 41° ENE 19:14:34 33° ESE
STARLINK-1202 3.6 19:09:20 10° WNW 19:13:30 82° NNE 19:15:18 33° ESE
NOSS 3-4 (A) 4.5 19:07:25 10° NW 19:14:09 52° WSW 19:20:34 14° SSE
NOSS 3-4 (C) 4.5 19:07:31 10° NW 19:14:16 52° WSW 19:20:38 14° SSE
SPOT 1/Viking Rocket 4.1 19:12:00 26° ESE 19:14:20 41° ENE 19:19:13 10° N
RESURS DK-1 3.8 19:12:35 10° NNW 19:16:06 25° NE 19:17:24 22° ENE
In-Cosmos 22 Rocket 4.4 19:11:31 10° N 19:17:20 61° ENE 19:20:35 26° SE
Cosmos 1300 2.5 19:17:24 23° S 19:19:42 72° E 19:23:32 10° NNE
FALCON 9 DEB 3.8 19:17:28 10° SW 19:20:16 38° S 19:20:16 38° S
Cosmos 1076 Rocket 3.7 19:16:45 10° N 19:20:57 51° ENE 19:22:14 37° SE
SL-4 R/B 1.4 19:18:08 10° WSW 19:21:33 87° SSE 19:22:39 41° ENE
MOS 1 Rocket 3.6 19:16:14 10° NNE 19:21:39 87° WNW 19:27:06 10° SSW
STARLINK-1246 3.5 19:19:19 10° WNW 19:23:29 88° NNE 19:24:53 41° ESE
CZ-2C R/B 4.4 19:19:21 10° N 19:23:59 57° WNW 19:28:31 10° SSW
STARLINK-1203 3.6 19:19:57 10° WNW 19:24:10 87° SSW 19:25:34 41° ESE
Cosmos 1340 Rocket 3.4 19:20:28 10° SSW 19:24:27 57° WNW 19:28:26 10° N
STARLINK-1201 3.2 19:21:54 10° WNW 19:25:06 53° SSW 19:25:26 50° S
H-2A R/B 4.3 19:22:41 10° SW 19:26:43 23° W 19:30:42 10° NW
STARLINK-1224 3.5 19:24:17 10° WNW 19:28:27 88° SSW 19:29:39 45° ESE
Cosmos 1763 Rocket 3.8 19:23:33 10° NNW 19:28:39 51° ENE 19:30:28 35° ESE
STARLINK-1225 3.5 19:29:17 10° WNW 19:33:27 85° SSW 19:34:27 51° ESE
SAR-Lupe-2 3.4 19:32:28 10° NNE 19:36:04 77° ESE 19:36:47 54° S
MetOp-B 4.1 19:33:01 27° SSE 19:36:06 85° WSW 19:41:31 10° NNW
Cosmos 540 Rocket 4.4 19:33:25 10° N 19:38:08 34° NE 19:39:30 29° E
STARLINK-1230 3.5 19:34:16 10° WNW 19:38:25 81° SSW 19:39:14 56° SE
COSMOS 2406 4.0 19:39:02 30° E 19:39:02 30° E 19:43:22 10° NE
Cosmos 1174 4.0 19:34:49 10° NW 19:38:51 81° NE 19:40:09 47° SE
USA 234 3.4 19:33:55 10° ENE 19:40:12 47° SE 19:46:27 10° SSW
Meteor 2-10 Rocket 4.3 19:42:14 32° E 19:42:20 32° E 19:47:06 10° NNE
STARLINK-1243 3.5 19:39:14 10° WNW 19:43:23 77° SSW 19:44:00 61° SE
Cosmos-2242 4.2 19:44:33 28° ENE 19:44:33 28° ENE 19:47:28 10° NNE
Iridium 4 Rocket 2.8 19:40:00 10° N 19:44:14 72° E 19:44:58 56° SSE
ATLAS 2AS CENTAUR R/B 4.1 19:39:30 10° NW 19:46:00 33° WSW 19:51:22 13° S
STARLINK-1236 3.5 19:44:13 10° WNW 19:48:21 73° SSW 19:48:47 66° SSE
USA 32 4.2 19:44:34 10° N 19:49:43 52° E 19:50:43 45° ESE
STPSAT 2 (USA 217) 4.4 19:48:49 41° S 19:50:16 70° ESE 19:54:45 10° NNE
CZ-4C R/B 3.5 19:46:10 10° NW 19:52:38 46° NNE 19:56:49 25° E
Cosmos 1140 Rocket 4.2 19:48:29 10° SW 19:53:33 52° WNW 19:58:37 10° NNE
Cosmos 2369 4.2 19:51:12 10° NNW 19:56:41 47° NE 19:58:09 39° E
STARLINK-1269 3.6 19:54:10 10° WNW 19:58:17 66° SSW 19:58:20 65° SSW
Spot 2 Rocket 3.8 19:56:54 33° S 19:59:08 63° WSW 20:04:14 10° NNW
Meteor 2-1 Rocket 4.2 19:56:24 33° S 19:59:09 75° E 20:05:07 10° NNE
Cosmos 1850 Rocket 4.0 19:59:22 54° SE 19:59:52 57° ESE 20:04:57 10° NNE
CZ-2C R/B 3.5 19:54:55 10° N 19:59:53 48° WNW 20:04:50 10° SW
Landsat 7 3.8 19:58:57 48° S 20:00:17 79° WSW 20:05:05 10° NNW
COSMOS 2455 3.9 19:56:40 10° NW 20:02:10 38° WSW 20:05:12 23° SSW
Cosmos 1697 Rocket 3.0 19:57:09 10° NNW 20:02:43 53° NE 20:04:03 43° E
Cosmos 1408 3.1 19:59:19 10° N 20:02:18 51° NNE 20:02:18 51° NNE
STARLINK-1200 3.7 19:59:09 10° WNW 20:03:07 61° SW 20:03:07 61° SW
ASTEX 1 4.4 20:05:06 31° ENE 20:05:06 31° ENE 20:09:20 10° NNE
Cosmos 841 Rocket 3.6 20:00:43 10° NNW 20:05:57 59° ENE 20:06:47 52° E
CARTOSAT-1 3.4 20:06:16 72° E 20:06:24 72° ENE 20:10:44 10° N
IGS 5A 3.6 20:06:53 58° SW 20:07:25 66° WSW 20:11:34 10° NNW
STARLINK-1192 3.9 20:04:09 10° WNW 20:07:54 56° SW 20:07:54 56° SW
Cosmos 2218 Rocket 4.3 20:02:45 10° NNW 20:08:53 63° W 20:12:17 28° SSW
Cosmos 1356 Rocket 4.0 20:10:36 47° NE 20:10:36 47° NE 20:13:55 10° NNE
Resurs 01 Rocket 3.6 20:08:30 13° SW 20:11:25 24° W 20:15:02 10° NW
Okean 3 Rocket 3.6 20:08:24 10° N 20:12:40 66° ENE 20:12:40 66° ENE
STARLINK-1244 4.1 20:09:08 10° WNW 20:12:41 51° WSW 20:12:41 51° WSW
ERBS 3.7 20:10:07 10° WNW 20:12:22 35° W 20:12:22 35° W
Mayak 1.0 20:10:12 10° NE 20:11:12 15° NE 20:11:12 15° NE
Cosmos 468 Rocket 4.3 20:11:48 10° NNW 20:16:54 59° WSW 20:18:01 48° SSW
BREEZE-M DEB (TANK) 4.2 20:14:30 10° W 20:15:10 15° W 20:15:10 15° W
ATLAS CENTAUR R/B 2.1 20:13:23 10° NNW 20:16:45 41° NNE 20:16:45 41° NNE
Cosmos 1766 Rocket 3.7 20:13:39 10° N 20:17:48 61° NE 20:17:48 61° NE
STARLINK-1138 4.3 20:14:07 10° WNW 20:17:28 45° WSW 20:17:28 45° WSW
SL-16 R/B 4.0 20:15:58 10° N 20:20:09 20° NE 20:22:23 17° ENE
Cosmos 1570 Rocket 3.9 20:15:49 10° NNW 20:21:14 89° ENE 20:21:55 69° SSE
ERS-1 Rocket 3.1 20:27:20 58° SSW 20:28:06 67° WSW 20:33:08 10° NNW
Meteor 2-3 Rocket 4.0 20:22:43 10° N 20:28:22 52° ENE 20:28:43 51° E
Cosmos 2322 Rocket 4.1 20:24:30 10° N 20:28:36 20° NE 20:30:46 16° ENE
Cosmos 1455 3.2 20:30:11 41° N 20:30:11 41° N 20:32:48 10° N
Cosmos 1656 3.8 20:24:22 10° NNW 20:30:02 67° WSW 20:30:56 57° SSW
Cosmos 1980 Rocket 2.6 20:26:28 10° NNW 20:31:56 50° NE 20:32:34 47° ENE
Cosmos 1892 4.0 20:28:21 10° NNW 20:31:56 35° W 20:32:00 35° W
SPOT 5 2.8 20:34:14 66° W 20:34:14 66° W 20:38:21 10° NNW
Cosmos 1825 3.3 20:38:22 10° NNW 20:41:04 43° NNW 20:41:04 43° NNW
Terra 1.8 20:42:27 77° W 20:42:27 77° W 20:47:06 10° NNW
Cosmos 2344 4.4 20:33:46 10° NW 20:42:48 70° NE 20:48:33 35° ESE
ATLAS 5 CENTAUR R/B 3.3 20:41:45 10° W 20:45:46 33° NNW 20:50:20 10° NE
Cosmos 2151 3.9 20:46:18 10° NNW 20:49:51 44° WNW 20:49:51 44° WNW
Nadezhda 3 Rocket 3.9 20:50:21 64° SSW 20:51:27 88° W 20:57:46 10° N
Cosmos 2360 4.1 20:47:00 10° NNW 20:52:44 84° ENE 20:52:50 83° E
RESURS DK-1 3.6 20:50:21 10° NW 20:53:17 38° WNW 20:53:17 38° WNW
Cosmos 1535 Rocket 4.3 20:49:03 10° N 20:55:14 76° E 20:55:36 73° ESE
Cosmos 2278 3.6 20:53:20 10° NNW 20:58:59 87° NNE 20:58:59 87° NNE
Cosmos 1408 Rocket 4.2 20:54:56 10° NNW 20:58:24 53° NNW 20:58:24 53° NNW
Thor Agena Rocket 4.4 20:55:40 10° NNE 20:59:03 37° NE 20:59:03 37° NE
Cosmos 2208 Rocket 4.4 20:55:52 10° NNW 21:00:47 53° W 21:00:47 53° W
SL-4 R/B 4.4 20:57:46 10° W 20:58:16 14° W 20:58:16 14° W
Cosmos 2082 Rocket 3.2 21:03:59 34° ENE 21:03:59 34° ENE 21:07:27 10° NE
Cosmos 1833 Rocket 2.8 21:13:44 67° NE 21:13:44 67° NE 21:18:38 10° NNE
BREEZE M DEB (TANK) 4.1 21:14:34 10° WSW 21:19:37 83° SSE 21:39:34 10° E
Cosmos 2221 4.2 21:21:51 29° NNE 21:21:51 29° NNE 21:24:04 10° NNE
Cosmos 540 Rocket 4.4 21:14:59 10° NW 21:19:20 41° W 21:19:20 41° W
Meteor 1-27 4.4 21:21:10 67° NE 21:21:10 67° NE 21:26:19 10° NNE
COSMOS 2406 3.8 21:21:00 42° WSW 21:22:30 55° NW 21:28:08 10° NNE
USA 234 3.3 21:16:57 10° ENE 21:23:30 76° NNW 21:30:01 10° WSW
Cosmos 1934 Rocket 4.0 21:18:10 10° NNW 21:24:24 69° W 21:24:38 68° WSW
Cosmos 1605 Rocket 3.9 21:32:41 10° NNW 21:38:37 78° WNW 21:38:37 78° WNW
CZ-4C R/B 2.9 21:34:37 10° NW 21:41:41 69° SW 21:41:59 68° SW
Cosmos 1697 Rocket 4.0 21:41:31 10° NW 21:45:47 31° W 21:45:47 31° W
Mayak 0.6 21:45:20 10° N 21:47:46 30° NNW 21:47:46 30° NNW
ALOS 2 4.2 21:55:17 33° N 21:55:17 33° N 21:57:47 10° N
ATLAS CENTAUR R/B 4.2 21:52:42 10° WNW 21:52:56 11° WNW 21:52:56 11° WNW
SL-16 R/B 2.6 21:59:32 10° NNW 22:04:14 59° N 22:04:14 59° N
Cosmos 2360 Rocket 3.1 22:03:22 10° NNW 22:08:30 42° NE 22:08:30 42° NE
Cosmos 2322 Rocket 2.7 22:07:59 10° NNW 22:12:34 57° N 22:12:34 57° N
Cosmos 1980 Rocket 3.6 22:10:47 10° NW 22:14:19 29° WNW 22:14:19 29° WNW
Terra 4.4 22:21:20 11° W 22:21:20 11° W 22:22:14 10° WNW
Cosmos 2333 Rocket 3.8 22:18:55 10° NNW 22:23:42 27° NE 22:25:05 24° ENE
ATLAS 5 CENTAUR R/B 4.4 22:28:23 10° NW 22:31:54 19° N 22:35:46 10° NE
Cosmos 2061 Rocket 4.2 22:26:25 10° N 22:32:00 68° NNE 22:32:00 68° NNE
Cosmos 1607 4.2 22:38:22 66° NNW 22:38:22 66° NNW 22:44:08 10° NE
Cosmos 2082 Rocket 3.3 22:45:47 35° WNW 22:46:16 36° NW 22:51:30 10° NNE
SL-16 R/B 4.2 22:46:28 22° E 22:48:37 26° NE 22:53:38 10° N
Cosmos 1459 Rocket 4.4 22:44:13 10° NNW 22:49:42 57° WNW 22:49:42 57° WNW
Cosmos 2233 Rocket 4.3 22:53:40 10° N 22:59:27 62° NE 22:59:27 62° NE
USA 234 4.0 22:59:53 10° ENE 23:06:09 51° N 23:12:25 10° WNW
Cosmos 2219 Rocket 3.1 23:01:51 10° NNW 23:07:12 43° NE 23:07:20 43° NE
Cosmos 1725 Rocket 4.2 23:01:04 10° NNW 23:06:34 68° NNW 23:06:34 68° NNW
Cosmos 2016 Rocket 4.3 23:01:22 10° NNW 23:06:48 60° NW 23:06:48 60° NW
Cosmos 2123 Rocket 4.1 23:19:41 70° NNW 23:19:41 70° NNW 23:25:12 10° N
Cosmos 1680 Rocket 4.3 23:16:19 10° NNW 23:20:30 48° NNE 23:20:30 48° NNE
Cosmos 2322 4.2 23:21:02 10° NNW 23:25:35 57° NNW 23:25:35 57° NNW
COSMOS 2428 3.2 23:22:37 10° NNW 23:28:04 55° NE 23:28:04 55° NE
SJ 16-02 3.5 23:37:59 21° ENE 23:37:59 21° ENE 23:39:59 10° NE
Resurs 1-4 Rocket 3.6 23:33:48 10° NE 23:37:53 28° E 23:37:53 28° E
Cosmos 2228 Rocket 4.5 23:50:00 38° N 23:50:00 38° N 23:52:53 10° N
SL-16 R/B 4.3 23:44:37 10° NW 23:46:05 15° WNW 23:46:05 15° WNW
Cosmos 2360 Rocket 3.7 23:47:29 10° NW 23:50:15 27° WNW 23:50:15 27° WNW
